Time,TemperatureF,DewpointF,PressureIn,WindDirection,WindDirectionDegrees,WindSpeedMPH,WindSpeedGustMPH,Humidity,HourlyPrecipIn,Conditions,Clouds,dailyrainin,SoftwareType,DateUTC
2013-05-28 00:01:00,63.9,52.3,30.13,South,183,0.0,0.0,66,0.00,,,0.00,LWC V2.00 B2112,2013-05-28 04:01:00,
2013-05-28 00:06:00,64.0,52.0,30.13,South,183,0.0,0.0,65,0.00,,,0.00,LWC V2.00 B2112,2013-05-28 04:06:00,
2013-05-28 00:11:00,64.0,52.4,30.13,SSW,212,0.0,0.0,66,0.00,,,0.00,LWC V2.00 B2112,2013-05-28 04:11:00,
2013-05-28 00:16:00,64.0,52.4,30.13,SW,218,0.0,0.0,66,0.00,,,0.00,LWC V2.00 B2112,2013-05-28 04:16:00,
2013-05-28 00:21:00,64.0,52.4,30.13,South,176,0.0,0.0,66,0.00,,,0.00,LWC V2.00 B2112,2013-05-28 04:21:00,
2013-05-28 00:26:00,64.2,52.6,30.13,SE,140,0.0,0.0,66,0.00,,,0.00,LWC V2.00 B2112,2013-05-28 04:26:00,
2013-05-28 00:31:00,64.0,52.4,30.13,SE,140,0.0,0.0,66,0.00,,,0.00,LWC V2.00 B2112,2013-05-28 04:31:00,
2013-05-28 00:36:00,63.9,52.3,30.13,SSE,160,0.0,0.0,66,0.00,,,0.00,LWC V2.00 B2112,2013-05-28 04:36:00,
2013-05-28 00:41:00,64.0,52.4,30.13,SSW,193,0.0,0.0,66,0.00,,,0.00,LWC V2.00 B2112,2013-05-28 04:41:00,
2013-05-28 00:46:00,64.0,52.4,30.13,SW,216,0.0,0.0,66,0.00,,,0.00,LWC V2.00 B2112,2013-05-28 04:46:00,
2013-05-28 00:51:00,64.0,52.4,30.13,SSW,210,0.0,0.0,66,0.00,,,0.00,LWC V2.00 B2112,2013-05-28 04:51:00,
2013-05-28 00:56:00,63.9,52.7,30.13,SSW,213,0.0,0.0,67,0.00,,,0.00,LWC V2.00 B2112,2013-05-28 04:56:00,
2013-05-28 01:01:00,63.7,52.5,30.13,SSW,213,0.0,0.0,67,0.00,,,0.00,LWC V2.00 B2112,2013-05-28 05:01:00,
2013-05-28 01:06:00,63.7,52.5,30.13,SSW,207,0.0,0.0,67,0.00,,,0.00,LWC V2.00 B2112,2013-05-28 05:06:00,
2013-05-28 01:11:00,63.4,52.6,30.12,SSW,207,0.0,0.0,68,0.00,,,0.00,LWC V2.00 B2112,2013-05-28 05:11:00,
2013-05-28 01:16:00,63.2,52.5,30.12,SSW,200,0.0,0.0,68,0.00,,,0.00,LWC V2.00 B2112,2013-05-28 05:16:00,
2013-05-28 01:21:00,63.2,52.9,30.12,SSW,200,0.0,0.0,69,0.00,,,0.00,LWC V2.00 B2112,2013-05-28 05:21:00,
2013-05-28 01:26:00,63.1,53.2,30.12,SSW,200,0.0,0.0,70,0.00,,,0.00,LWC V2.00 B2112,2013-05-28 05:26:00,
2013-05-28 01:31:00,62.7,52.8,30.12,SSW,200,0.0,0.0,70,0.00,,,0.00,LWC V2.00 B2112,2013-05-28 05:31:00,
2013-05-28 01:36:00,62.6,52.7,30.12,SSW,199,0.0,0.0,70,0.00,,,0.00,LWC V2.00 B2112,2013-05-28 05:36:00,
2013-05-28 01:41:00,62.6,52.7,30.11,SW,226,0.0,0.0,70,0.00,,,0.00,LWC V2.00 B2112,2013-05-28 05:41:00,
2013-05-28 01:46:00,62.4,52.9,30.11,SSE,151,0.0,0.0,71,0.00,,,0.00,LWC V2.00 B2112,2013-05-28 05:46:00,
2013-05-28 01:51:00,62.4,52.9,30.11,SSE,151,0.0,0.0,71,0.00,,,0.00,LWC V2.00 B2112,2013-05-28 05:51:00,
2013-05-28 01:56:00,62.4,52.9,30.11,South,183,0.0,0.0,71,0.00,,,0.00,LWC V2.00 B2112,2013-05-28 05:56:00,
2013-05-28 02:01:00,62.4,52.9,30.11,South,183,0.0,0.0,71,0.00,,,0.00,LWC V2.00 B2112,2013-05-28 06:01:00,
2013-05-28 02:06:00,62.4,53.2,30.11,SSE,162,0.0,0.0,72,0.00,,,0.00,LWC V2.00 B2112,2013-05-28 06:06:00,
2013-05-28 02:11:00,62.4,53.2,30.11,SSW,203,0.0,0.0,72,0.00,,,0.00,LWC V2.00 B2112,2013-05-28 06:11:00,
2013-05-28 02:16:00,62.4,53.2,30.11,SSW,195,0.0,0.0,72,0.00,,,0.00,LWC V2.00 B2112,2013-05-28 06:16:00,
2013-05-28 02:21:00,62.3,53.2,30.11,SSW,195,0.0,0.0,72,0.00,,,0.00,LWC V2.00 B2112,2013-05-28 06:21:00,
2013-05-28 02:26:00,62.1,53.3,30.11,SSW,195,0.0,0.0,73,0.00,,,0.00,LWC V2.00 B2112,2013-05-28 06:26:00,
2013-05-28 02:31:00,62.0,53.2,30.11,SSW,195,0.0,0.0,73,0.00,,,0.00,LWC V2.00 B2112,2013-05-28 06:31:00,
2013-05-28 02:36:00,61.8,53.4,30.11,SSW,195,0.0,0.0,74,0.00,,,0.00,LWC V2.00 B2112,2013-05-28 06:36:00,
2013-05-28 02:41:00,61.5,53.1,30.11,SSE,153,0.0,0.0,74,0.00,,,0.00,LWC V2.00 B2112,2013-05-28 06:41:00,
2013-05-28 02:46:00,61.3,53.3,30.11,SSE,153,0.0,0.0,75,0.00,,,0.00,LWC V2.00 B2112,2013-05-28 06:46:00,
2013-05-28 02:51:00,61.2,53.2,30.11,SSE,153,0.0,0.0,75,0.00,,,0.00,LWC V2.00 B2112,2013-05-28 06:51:00,
2013-05-28 02:56:00,61.0,53.4,30.11,SSE,153,0.0,0.0,76,0.00,,,0.00,LWC V2.00 B2112,2013-05-28 06:56:00,
2013-05-28 03:01:00,61.0,53.4,30.11,SE,127,0.0,0.0,76,0.00,,,0.00,LWC V2.00 B2112,2013-05-28 07:01:00,
2013-05-28 03:06:00,60.9,53.6,30.11,SE,127,0.0,0.0,77,0.00,,,0.00,LWC V2.00 B2112,2013-05-28 07:06:00,
2013-05-28 03:11:00,60.9,53.6,30.10,SE,127,0.0,0.0,77,0.00,,,0.00,LWC V2.00 B2112,2013-05-28 07:11:00,
2013-05-28 03:16:00,60.7,53.8,30.10,SE,124,0.0,0.0,78,0.00,,,0.00,LWC V2.00 B2112,2013-05-28 07:16:00,
2013-05-28 03:21:00,60.7,53.8,30.10,SE,124,0.0,0.0,78,0.00,,,0.00,LWC V2.00 B2112,2013-05-28 07:21:00,
2013-05-28 03:26:00,60.7,54.1,30.10,SE,124,0.0,0.0,79,0.00,,,0.00,LWC V2.00 B2112,2013-05-28 07:26:00,
2013-05-28 03:31:00,60.7,54.1,30.10,South,172,0.0,0.0,79,0.00,,,0.00,LWC V2.00 B2112,2013-05-28 07:31:00,
2013-05-28 03:36:00,60.7,54.1,30.10,South,172,0.0,0.0,79,0.00,,,0.00,LWC V2.00 B2112,2013-05-28 07:36:00,
2013-05-28 03:41:00,60.7,54.1,30.09,South,181,0.0,0.0,79,0.00,,,0.00,LWC V2.00 B2112,2013-05-28 07:41:00,
2013-05-28 03:46:00,60.7,54.5,30.09,SSW,210,0.0,0.0,80,0.00,,,0.00,LWC V2.00 B2112,2013-05-28 07:46:00,
2013-05-28 03:51:00,60.7,54.5,30.09,South,184,0.0,0.0,80,0.00,,,0.00,LWC V2.00 B2112,2013-05-28 07:51:00,
2013-05-28 03:56:00,60.7,54.5,30.09,SSW,196,0.0,0.0,80,0.00,,,0.00,LWC V2.00 B2112,2013-05-28 07:56:00,
2013-05-28 04:01:00,60.7,54.5,30.09,SSW,199,0.0,0.0,80,0.00,,,0.00,LWC V2.00 B2112,2013-05-28 08:01:00,
2013-05-28 04:06:00,60.7,54.5,30.09,SSW,197,0.0,0.0,80,0.00,,,0.00,LWC V2.00 B2112,2013-05-28 08:06:00,
2013-05-28 04:11:00,60.7,54.8,30.09,SSW,193,0.0,0.0,81,0.00,,,0.00,LWC V2.00 B2112,2013-05-28 08:11:00,
2013-05-28 04:16:00,60.5,54.6,30.09,SSW,207,0.0,0.0,81,0.00,,,0.00,LWC V2.00 B2112,2013-05-28 08:16:00,
2013-05-28 04:21:00,60.4,54.9,30.09,SSE,168,0.0,0.0,82,0.00,,,0.00,LWC V2.00 B2112,2013-05-28 08:21:00,
2013-05-28 04:26:00,60.4,55.2,30.10,South,186,0.0,0.0,83,0.00,,,0.00,LWC V2.00 B2112,2013-05-28 08:26:00,
2013-05-28 04:31:00,60.2,55.0,30.10,South,186,0.0,0.0,83,0.00,,,0.00,LWC V2.00 B2112,2013-05-28 08:31:00,
2013-05-28 04:36:00,60.2,55.3,30.10,South,186,0.0,0.0,84,0.00,,,0.00,LWC V2.00 B2112,2013-05-28 08:36:00,
2013-05-28 04:41:00,60.2,55.7,30.10,South,186,0.0,0.0,85,0.00,,,0.00,LWC V2.00 B2112,2013-05-28 08:41:00,
2013-05-28 04:46:00,60.4,56.2,30.10,South,175,0.0,0.0,86,0.00,,,0.00,LWC V2.00 B2112,2013-05-28 08:46:00,
2013-05-28 04:51:00,60.4,56.2,30.10,South,175,0.0,0.0,86,0.00,,,0.00,LWC V2.00 B2112,2013-05-28 08:51:00,
2013-05-28 04:56:00,60.4,56.2,30.10,South,175,0.0,0.0,86,0.00,,,0.00,LWC V2.00 B2112,2013-05-28 08:56:00,
2013-05-28 05:01:00,60.5,56.6,30.10,South,175,0.0,0.0,87,0.00,,,0.00,LWC V2.00 B2112,2013-05-28 09:01:00,
2013-05-28 05:06:00,60.5,56.6,30.10,ESE,112,0.0,0.0,87,0.00,,,0.00,LWC V2.00 B2112,2013-05-28 09:06:00,
2013-05-28 05:11:00,60.5,56.6,30.10,SSE,160,0.0,0.0,87,0.00,,,0.00,LWC V2.00 B2112,2013-05-28 09:11:00,
2013-05-28 05:16:00,60.5,56.6,30.10,SSE,160,0.0,0.0,87,0.00,,,0.00,LWC V2.00 B2112,2013-05-28 09:16:00,
2013-05-28 05:21:00,60.4,56.5,30.10,SSE,160,0.0,0.0,87,0.00,,,0.00,LWC V2.00 B2112,2013-05-28 09:21:00,
2013-05-28 05:26:00,60.4,56.5,30.10,SSE,160,0.0,0.0,87,0.00,,,0.00,LWC V2.00 B2112,2013-05-28 09:26:00,
2013-05-28 05:31:00,60.2,56.3,30.10,SSE,160,0.0,0.0,87,0.00,,,0.00,LWC V2.00 B2112,2013-05-28 09:31:00,
2013-05-28 05:36:00,60.1,56.2,30.10,SSE,160,0.0,0.0,87,0.00,,,0.00,LWC V2.00 B2112,2013-05-28 09:36:00,
2013-05-28 05:41:00,59.9,56.0,30.10,SSE,160,0.0,0.0,87,0.00,,,0.00,LWC V2.00 B2112,2013-05-28 09:41:00,
2013-05-28 05:46:00,59.8,55.9,30.10,SSE,160,0.0,0.0,87,0.00,,,0.00,LWC V2.00 B2112,2013-05-28 09:46:00,
2013-05-28 05:51:00,59.8,56.2,30.10,SSE,160,0.0,0.0,88,0.00,,,0.00,LWC V2.00 B2112,2013-05-28 09:51:00,
2013-05-28 05:56:00,59.6,56.0,30.11,SSE,160,0.0,0.0,88,0.00,,,0.00,LWC V2.00 B2112,2013-05-28 09:56:00,
2013-05-28 06:01:00,59.5,55.9,30.11,SSE,160,0.0,0.0,88,0.00,,,0.00,LWC V2.00 B2112,2013-05-28 10:01:00,
2013-05-28 06:06:00,59.3,56.1,30.11,SSE,160,0.0,0.0,89,0.00,,,0.00,LWC V2.00 B2112,2013-05-28 10:06:00,
2013-05-28 06:11:00,59.3,56.1,30.11,SSE,160,0.0,0.0,89,0.00,,,0.00,LWC V2.00 B2112,2013-05-28 10:11:00,
2013-05-28 06:16:00,59.2,56.0,30.11,SSE,160,0.0,0.0,89,0.00,,,0.00,LWC V2.00 B2112,2013-05-28 10:16:00,
2013-05-28 06:21:00,59.2,56.3,30.11,SSE,160,0.0,0.0,90,0.00,,,0.00,LWC V2.00 B2112,2013-05-28 10:21:00,
2013-05-28 06:26:00,59.0,56.1,30.13,SSE,160,0.0,0.0,90,0.00,,,0.00,LWC V2.00 B2112,2013-05-28 10:26:00,
2013-05-28 06:31:00,59.0,56.1,30.13,SSE,160,0.0,0.0,90,0.00,,,0.00,LWC V2.00 B2112,2013-05-28 10:31:00,
2013-05-28 06:36:00,59.0,56.1,30.13,SSE,160,0.0,0.0,90,0.00,,,0.00,LWC V2.00 B2112,2013-05-28 10:36:00,
2013-05-28 06:41:00,59.0,56.4,30.13,SSE,160,0.0,0.0,91,0.00,,,0.00,LWC V2.00 B2112,2013-05-28 10:41:00,
2013-05-28 06:46:00,59.2,56.9,30.13,SSE,160,0.0,0.0,92,0.00,,,0.00,LWC V2.00 B2112,2013-05-28 10:46:00,
2013-05-28 06:51:00,59.3,57.0,30.13,SSE,160,0.0,0.0,92,0.00,,,0.00,LWC V2.00 B2112,2013-05-28 10:51:00,
2013-05-28 06:56:00,59.6,57.3,30.13,SSE,160,0.0,0.0,92,0.00,,,0.00,LWC V2.00 B2112,2013-05-28 10:56:00,
2013-05-28 07:01:00,59.9,57.6,30.13,SSE,160,0.0,0.0,92,0.00,,,0.00,LWC V2.00 B2112,2013-05-28 11:01:00,
2013-05-28 07:06:00,60.2,57.9,30.13,SSE,160,0.0,0.0,92,0.00,,,0.00,LWC V2.00 B2112,2013-05-28 11:06:00,
2013-05-28 07:11:00,60.4,58.1,30.14,SSE,160,0.0,0.0,92,0.00,,,0.00,LWC V2.00 B2112,2013-05-28 11:11:00,
2013-05-28 07:16:00,60.7,58.4,30.14,SSE,160,0.0,0.0,92,0.00,,,0.00,LWC V2.00 B2112,2013-05-28 11:16:00,
2013-05-28 07:21:00,61.0,58.3,30.14,SSE,160,0.0,0.0,91,0.00,,,0.00,LWC V2.00 B2112,2013-05-28 11:21:00,
2013-05-28 07:26:00,61.2,58.5,30.15,SSE,160,0.0,0.0,91,0.00,,,0.00,LWC V2.00 B2112,2013-05-28 11:26:00,
2013-05-28 07:31:00,61.5,58.8,30.15,SSE,160,0.0,0.0,91,0.00,,,0.00,LWC V2.00 B2112,2013-05-28 11:31:00,
2013-05-28 07:36:00,61.8,59.1,30.15,SSE,160,0.0,0.0,91,0.00,,,0.00,LWC V2.00 B2112,2013-05-28 11:36:00,
2013-05-28 07:41:00,62.3,59.6,30.15,SSE,160,0.0,0.0,91,0.00,,,0.00,LWC V2.00 B2112,2013-05-28 11:41:00,
2013-05-28 07:46:00,62.7,60.0,30.15,SSW,204,0.0,0.0,91,0.00,,,0.00,LWC V2.00 B2112,2013-05-28 11:46:00,
2013-05-28 07:51:00,63.2,60.2,30.15,South,178,0.0,0.0,90,0.00,,,0.00,LWC V2.00 B2112,2013-05-28 11:51:00,
2013-05-28 07:56:00,63.7,60.7,30.15,West,263,0.0,0.0,90,0.00,,,0.00,LWC V2.00 B2112,2013-05-28 11:56:00,
2013-05-28 08:01:00,64.2,60.9,30.15,SSW,203,0.0,0.0,89,0.00,,,0.00,LWC V2.00 B2112,2013-05-28 12:01:00,
2013-05-28 08:06:00,64.8,60.8,30.15,ESE,105,0.0,0.0,87,0.00,,,0.00,LWC V2.00 B2112,2013-05-28 12:06:00,
2013-05-28 08:11:00,65.3,61.3,30.15,WSW,240,0.0,0.0,87,0.00,,,0.00,LWC V2.00 B2112,2013-05-28 12:11:00,
2013-05-28 08:16:00,66.1,61.8,30.15,SW,232,0.0,0.0,86,0.00,,,0.00,LWC V2.00 B2112,2013-05-28 12:16:00,
2013-05-28 08:21:00,66.8,61.8,30.15,SW,214,0.0,0.0,84,0.00,,,0.00,LWC V2.00 B2112,2013-05-28 12:21:00,
2013-05-28 08:26:00,67.1,61.8,30.15,WSW,247,0.0,0.0,83,0.00,,,0.00,LWC V2.00 B2112,2013-05-28 12:26:00,
2013-05-28 08:31:00,67.3,61.6,30.15,SSW,197,0.0,0.0,82,0.00,,,0.00,LWC V2.00 B2112,2013-05-28 12:31:00,
2013-05-28 08:36:00,67.4,62.0,30.15,SSW,197,0.0,0.0,83,0.00,,,0.00,LWC V2.00 B2112,2013-05-28 12:36:00,
2013-05-28 08:41:00,67.8,62.1,30.16,WSW,245,0.0,5.0,82,0.00,,,0.00,LWC V2.00 B2112,2013-05-28 12:41:00,
2013-05-28 08:46:00,67.8,62.1,30.16,West,276,0.0,0.0,82,0.00,,,0.00,LWC V2.00 B2112,2013-05-28 12:46:00,
2013-05-28 08:51:00,67.9,62.2,30.16,SW,226,0.0,0.0,82,0.00,,,0.00,LWC V2.00 B2112,2013-05-28 12:51:00,
2013-05-28 08:56:00,68.1,62.4,30.16,SW,215,0.0,0.0,82,0.00,,,0.00,LWC V2.00 B2112,2013-05-28 12:56:00,
2013-05-28 09:01:00,68.6,62.5,30.16,WSW,244,0.0,0.0,81,0.00,,,0.00,LWC V2.00 B2112,2013-05-28 13:01:00,
2013-05-28 09:06:00,68.9,62.5,30.16,SSW,210,0.0,0.0,80,0.00,,,0.00,LWC V2.00 B2112,2013-05-28 13:06:00,
2013-05-28 09:11:00,69.8,63.7,30.16,WSW,256,0.0,0.0,81,0.00,,,0.00,LWC V2.00 B2112,2013-05-28 13:11:00,
2013-05-28 09:16:00,70.4,63.2,30.16,SSE,148,0.0,0.0,78,0.00,,,0.00,LWC V2.00 B2112,2013-05-28 13:16:00,
2013-05-28 09:21:00,70.9,63.7,30.16,South,169,0.0,0.0,78,0.00,,,0.00,LWC V2.00 B2112,2013-05-28 13:21:00,
2013-05-28 09:26:00,71.1,63.5,30.16,WNW,297,0.0,0.0,77,0.00,,,0.00,LWC V2.00 B2112,2013-05-28 13:26:00,
2013-05-28 09:31:00,71.6,64.4,30.16,West,281,0.0,0.0,78,0.00,,,0.00,LWC V2.00 B2112,2013-05-28 13:31:00,
2013-05-28 09:36:00,72.0,64.0,30.16,SSE,156,0.0,2.0,76,0.00,,,0.00,LWC V2.00 B2112,2013-05-28 13:36:00,
2013-05-28 09:41:00,72.7,65.1,30.16,WSW,237,0.0,0.0,77,0.00,,,0.00,LWC V2.00 B2112,2013-05-28 13:41:00,
2013-05-28 09:46:00,73.3,63.3,30.16,SW,221,0.0,3.0,71,0.00,,,0.00,LWC V2.00 B2112,2013-05-28 13:46:00,
2013-05-28 09:51:00,73.3,63.3,30.16,WSW,251,0.0,3.0,71,0.00,,,0.00,LWC V2.00 B2112,2013-05-28 13:51:00,
2013-05-28 09:56:00,73.5,62.3,30.16,WSW,253,0.0,3.0,68,0.00,,,0.00,LWC V2.00 B2112,2013-05-28 13:56:00,
2013-05-28 10:01:00,73.9,63.5,30.16,WSW,257,0.0,0.0,70,0.00,,,0.00,LWC V2.00 B2112,2013-05-28 14:01:00,
2013-05-28 10:06:00,74.6,64.2,30.16,West,259,0.0,0.0,70,0.00,,,0.00,LWC V2.00 B2112,2013-05-28 14:06:00,
2013-05-28 10:11:00,74.9,65.2,30.16,West,278,0.0,0.0,72,0.00,,,0.00,LWC V2.00 B2112,2013-05-28 14:11:00,
2013-05-28 10:16:00,75.4,64.9,30.16,SE,124,0.0,0.0,70,0.00,,,0.00,LWC V2.00 B2112,2013-05-28 14:16:00,
2013-05-28 10:21:00,75.8,62.7,30.16,South,183,0.0,4.0,64,0.00,,,0.00,LWC V2.00 B2112,2013-05-28 14:21:00,
2013-05-28 10:26:00,75.8,63.2,30.15,WSW,256,0.0,0.0,65,0.00,,,0.00,LWC V2.00 B2112,2013-05-28 14:26:00,
2013-05-28 10:31:00,76.1,62.6,30.15,SSW,200,0.0,0.0,63,0.00,,,0.00,LWC V2.00 B2112,2013-05-28 14:31:00,
2013-05-28 10:36:00,76.3,61.8,30.15,SE,141,0.0,0.0,61,0.00,,,0.00,LWC V2.00 B2112,2013-05-28 14:36:00,
2013-05-28 10:41:00,76.8,61.8,30.16,SSW,195,0.0,0.0,60,0.00,,,0.00,LWC V2.00 B2112,2013-05-28 14:41:00,
2013-05-28 10:46:00,77.0,61.1,30.16,WNW,297,0.0,4.0,58,0.00,,,0.00,LWC V2.00 B2112,2013-05-28 14:46:00,
2013-05-28 10:51:00,77.4,64.2,30.16,WNW,290,0.0,0.0,64,0.00,,,0.00,LWC V2.00 B2112,2013-05-28 14:51:00,
2013-05-28 10:56:00,77.4,61.4,30.16,West,278,0.0,0.0,58,0.00,,,0.00,LWC V2.00 B2112,2013-05-28 14:56:00,
2013-05-28 11:01:00,76.7,61.3,30.16,West,262,0.0,0.0,59,0.00,,,0.00,LWC V2.00 B2112,2013-05-28 15:01:00,
2013-05-28 11:06:00,76.0,61.6,30.16,South,180,0.0,1.0,61,0.00,,,0.00,LWC V2.00 B2112,2013-05-28 15:06:00,
2013-05-28 11:11:00,76.3,64.5,30.16,SW,221,0.0,0.0,67,0.00,,,0.00,LWC V2.00 B2112,2013-05-28 15:11:00,
2013-05-28 11:16:00,76.7,63.1,30.16,SW,218,1.0,1.0,63,0.00,,,0.00,LWC V2.00 B2112,2013-05-28 15:16:00,
2013-05-28 11:21:00,77.2,64.1,30.16,SSE,168,0.0,5.0,64,0.00,,,0.00,LWC V2.00 B2112,2013-05-28 15:21:00,
2013-05-28 11:26:00,77.2,63.2,30.16,SW,228,0.0,2.0,62,0.00,,,0.00,LWC V2.00 B2112,2013-05-28 15:26:00,
2013-05-28 11:31:00,77.7,63.2,30.16,SW,221,4.0,5.0,61,0.00,,,0.00,LWC V2.00 B2112,2013-05-28 15:31:00,
2013-05-28 11:36:00,78.1,63.5,30.16,SW,224,0.0,3.0,61,0.00,,,0.00,LWC V2.00 B2112,2013-05-28 15:36:00,
2013-05-28 11:41:00,78.3,63.7,30.16,SSE,153,0.0,0.0,61,0.00,,,0.00,LWC V2.00 B2112,2013-05-28 15:41:00,
2013-05-28 11:46:00,78.8,65.6,30.16,SSW,212,0.0,0.0,64,0.00,,,0.00,LWC V2.00 B2112,2013-05-28 15:46:00,
2013-05-28 11:51:00,79.4,62.8,30.16,South,184,0.0,0.0,57,0.00,,,0.00,LWC V2.00 B2112,2013-05-28 15:51:00,
2013-05-28 11:56:00,79.8,64.2,30.16,West,269,0.0,5.0,59,0.00,,,0.00,LWC V2.00 B2112,2013-05-28 15:56:00,
2013-05-28 12:01:00,79.2,62.6,30.16,WSW,254,0.0,0.0,57,0.00,,,0.00,LWC V2.00 B2112,2013-05-28 16:01:00,
2013-05-28 12:06:00,79.2,63.1,30.16,SSE,148,0.0,0.0,58,0.00,,,0.00,LWC V2.00 B2112,2013-05-28 16:06:00,
2013-05-28 12:16:00,78.8,62.3,30.15,WSW,257,0.0,2.0,57,0.00,,,0.00,LWC V2.00 B2112,2013-05-28 16:16:00,
2013-05-28 12:21:00,79.2,64.6,30.15,SW,221,0.0,0.0,61,0.00,,,0.00,LWC V2.00 B2112,2013-05-28 16:21:00,
2013-05-28 12:26:00,79.6,64.5,30.15,SSW,205,4.0,6.0,60,0.00,,,0.00,LWC V2.00 B2112,2013-05-28 16:26:00,
2013-05-28 12:31:00,79.8,63.2,30.15,South,175,6.0,9.0,57,0.00,,,0.00,LWC V2.00 B2112,2013-05-28 16:31:00,
2013-05-28 12:36:00,79.6,64.9,30.15,SW,236,0.0,0.0,61,0.00,,,0.00,LWC V2.00 B2112,2013-05-28 16:36:00,
2013-05-28 12:41:00,79.6,64.0,30.14,South,170,0.0,0.0,59,0.00,,,0.00,LWC V2.00 B2112,2013-05-28 16:41:00,
2013-05-28 12:46:00,79.8,63.7,30.14,North,351,0.0,0.0,58,0.00,,,0.00,LWC V2.00 B2112,2013-05-28 16:46:00,
2013-05-28 12:51:00,80.1,64.0,30.14,SW,225,0.0,0.0,58,0.00,,,0.00,LWC V2.00 B2112,2013-05-28 16:51:00,
2013-05-28 12:56:00,80.1,64.0,30.14,SW,228,0.0,6.0,58,0.00,,,0.00,LWC V2.00 B2112,2013-05-28 16:56:00,
2013-05-28 13:01:00,80.7,65.0,30.14,West,276,0.0,0.0,59,0.00,,,0.00,LWC V2.00 B2112,2013-05-28 17:01:00,
2013-05-28 13:06:00,80.9,63.2,30.14,SSW,196,0.0,4.0,55,0.00,,,0.00,LWC V2.00 B2112,2013-05-28 17:06:00,
2013-05-28 13:11:00,81.1,65.4,30.13,WSW,245,0.0,4.0,59,0.00,,,0.00,LWC V2.00 B2112,2013-05-28 17:11:00,
2013-05-28 13:16:00,81.2,64.5,30.13,SSE,160,0.0,0.0,57,0.00,,,0.00,LWC V2.00 B2112,2013-05-28 17:16:00,
2013-05-28 13:21:00,81.2,64.0,30.13,SSE,167,0.0,3.0,56,0.00,,,0.00,LWC V2.00 B2112,2013-05-28 17:21:00,
2013-05-28 13:26:00,81.2,64.0,30.12,SSE,162,0.0,0.0,56,0.00,,,0.00,LWC V2.00 B2112,2013-05-28 17:26:00,
2013-05-28 13:31:00,81.4,64.7,30.12,ESE,118,0.0,2.0,57,0.00,,,0.00,LWC V2.00 B2112,2013-05-28 17:31:00,
2013-05-28 13:36:00,81.4,64.7,30.12,ESE,116,0.0,7.0,57,0.00,,,0.00,LWC V2.00 B2112,2013-05-28 17:36:00,
2013-05-28 13:41:00,81.2,65.0,30.12,East,98,0.0,5.0,58,0.00,,,0.00,LWC V2.00 B2112,2013-05-28 17:41:00,
2013-05-28 13:46:00,81.4,64.7,30.12,East,101,0.0,2.0,57,0.00,,,0.00,LWC V2.00 B2112,2013-05-28 17:46:00,
2013-05-28 13:51:00,81.6,64.9,30.12,SSW,197,0.0,0.0,57,0.00,,,0.00,LWC V2.00 B2112,2013-05-28 17:51:00,
2013-05-28 13:56:00,81.8,65.1,30.12,ENE,77,0.0,1.0,57,0.00,,,0.00,LWC V2.00 B2112,2013-05-28 17:56:00,
2013-05-28 14:06:00,82.0,64.2,30.12,SSE,158,1.0,6.0,55,0.00,,,0.00,LWC V2.00 B2112,2013-05-28 18:06:00,
2013-05-28 14:11:00,82.0,65.2,30.11,WSW,254,3.0,7.0,57,0.00,,,0.00,LWC V2.00 B2112,2013-05-28 18:11:00,
2013-05-28 14:16:00,81.8,65.1,30.11,SE,141,0.0,7.0,57,0.00,,,0.00,LWC V2.00 B2112,2013-05-28 18:16:00,
2013-05-28 14:21:00,82.2,64.9,30.11,SW,219,0.0,6.0,56,0.00,,,0.00,LWC V2.00 B2112,2013-05-28 18:21:00,
2013-05-28 14:26:00,82.4,65.1,30.10,SW,217,0.0,0.0,56,0.00,,,0.00,LWC V2.00 B2112,2013-05-28 18:26:00,
2013-05-28 14:31:00,82.6,66.3,30.10,SW,220,3.0,5.0,58,0.00,,,0.00,LWC V2.00 B2112,2013-05-28 18:31:00,
2013-05-28 14:36:00,82.8,65.0,30.10,SW,231,0.0,6.0,55,0.00,,,0.00,LWC V2.00 B2112,2013-05-28 18:36:00,
2013-05-28 14:41:00,82.6,65.3,30.11,NNW,341,0.0,6.0,56,0.00,,,0.00,LWC V2.00 B2112,2013-05-28 18:41:00,
2013-05-28 14:46:00,82.8,64.4,30.11,SSE,157,0.0,0.0,54,0.00,,,0.00,LWC V2.00 B2112,2013-05-28 18:46:00,
2013-05-28 14:51:00,82.6,64.8,30.11,WSW,239,0.0,0.0,55,0.00,,,0.00,LWC V2.00 B2112,2013-05-28 18:51:00,
2013-05-28 14:56:00,82.4,64.1,30.10,SSW,208,0.0,4.0,54,0.00,,,0.00,LWC V2.00 B2112,2013-05-28 18:56:00,
2013-05-28 15:01:00,82.4,65.6,30.10,WSW,238,0.0,0.0,57,0.00,,,0.00,LWC V2.00 B2112,2013-05-28 19:01:00,
2013-05-28 15:06:00,83.0,68.1,30.10,West,275,3.0,4.0,61,0.00,,,0.00,LWC V2.00 B2112,2013-05-28 19:06:00,
2013-05-28 15:11:00,82.8,65.0,30.10,SSW,211,0.0,5.0,55,0.00,,,0.00,LWC V2.00 B2112,2013-05-28 19:11:00,
2013-05-28 15:16:00,82.2,64.4,30.10,SW,234,0.0,2.0,55,0.00,,,0.00,LWC V2.00 B2112,2013-05-28 19:16:00,
2013-05-28 15:21:00,82.2,65.4,30.10,SSW,207,0.0,2.0,57,0.00,,,0.00,LWC V2.00 B2112,2013-05-28 19:21:00,
2013-05-28 15:26:00,81.8,64.0,30.11,South,182,0.0,1.0,55,0.00,,,0.00,LWC V2.00 B2112,2013-05-28 19:26:00,
2013-05-28 15:31:00,81.6,64.9,30.11,SE,142,0.0,0.0,57,0.00,,,0.00,LWC V2.00 B2112,2013-05-28 19:31:00,
2013-05-28 15:36:00,82.0,64.7,30.11,SSW,194,0.0,0.0,56,0.00,,,0.00,LWC V2.00 B2112,2013-05-28 19:36:00,
2013-05-28 15:41:00,82.4,65.6,30.11,SSW,198,0.0,0.0,57,0.00,,,0.00,LWC V2.00 B2112,2013-05-28 19:41:00,
2013-05-28 15:46:00,82.4,66.6,30.11,WNW,295,0.0,4.0,59,0.00,,,0.00,LWC V2.00 B2112,2013-05-28 19:46:00,
2013-05-28 15:51:00,82.6,63.7,30.11,SE,125,0.0,6.0,53,0.00,,,0.00,LWC V2.00 B2112,2013-05-28 19:51:00,
2013-05-28 15:56:00,82.8,65.5,30.10,SW,230,0.0,0.0,56,0.00,,,0.00,LWC V2.00 B2112,2013-05-28 19:56:00,
2013-05-28 16:01:00,83.0,65.1,30.10,SSW,199,0.0,0.0,55,0.00,,,0.00,LWC V2.00 B2112,2013-05-28 20:01:00,
2013-05-28 16:06:00,83.4,64.4,30.10,SSW,192,0.0,8.0,53,0.00,,,0.00,LWC V2.00 B2112,2013-05-28 20:06:00,
2013-05-28 16:11:00,83.4,63.9,30.10,WSW,244,0.0,8.0,52,0.00,,,0.00,LWC V2.00 B2112,2013-05-28 20:11:00,
2013-05-28 16:16:00,82.8,66.0,30.10,SE,127,0.0,0.0,57,0.00,,,0.00,LWC V2.00 B2112,2013-05-28 20:16:00,
2013-05-28 16:21:00,82.6,64.2,30.10,SSW,202,0.0,0.0,54,0.00,,,0.00,LWC V2.00 B2112,2013-05-28 20:21:00,
2013-05-28 16:26:00,82.6,63.7,30.09,SW,231,0.0,7.0,53,0.00,,,0.00,LWC V2.00 B2112,2013-05-28 20:26:00,
2013-05-28 16:31:00,82.4,64.1,30.09,South,190,0.0,0.0,54,0.00,,,0.00,LWC V2.00 B2112,2013-05-28 20:31:00,
2013-05-28 16:36:00,82.4,63.5,30.09,SSW,210,0.0,11.0,53,0.00,,,0.00,LWC V2.00 B2112,2013-05-28 20:36:00,
2013-05-28 16:41:00,82.8,63.9,30.09,SW,224,0.0,6.0,53,0.00,,,0.00,LWC V2.00 B2112,2013-05-28 20:41:00,
2013-05-28 16:46:00,82.8,65.0,30.09,SSW,196,0.0,10.0,55,0.00,,,0.00,LWC V2.00 B2112,2013-05-28 20:46:00,
2013-05-28 16:51:00,82.8,63.9,30.09,SSW,204,0.0,0.0,53,0.00,,,0.00,LWC V2.00 B2112,2013-05-28 20:51:00,
2013-05-28 16:56:00,82.6,64.2,30.09,NE,44,0.0,0.0,54,0.00,,,0.00,LWC V2.00 B2112,2013-05-28 20:56:00,
2013-05-28 17:01:00,82.6,63.7,30.09,WSW,255,0.0,6.0,53,0.00,,,0.00,LWC V2.00 B2112,2013-05-28 21:01:00,
2013-05-28 17:06:00,82.8,63.3,30.09,SSW,196,0.0,1.0,52,0.00,,,0.00,LWC V2.00 B2112,2013-05-28 21:06:00,
2013-05-28 17:11:00,82.8,63.9,30.09,South,171,0.0,0.0,53,0.00,,,0.00,LWC V2.00 B2112,2013-05-28 21:11:00,
2013-05-28 17:16:00,82.8,64.4,30.09,South,184,0.0,0.0,54,0.00,,,0.00,LWC V2.00 B2112,2013-05-28 21:16:00,
2013-05-28 17:21:00,82.8,63.9,30.09,SSE,155,0.0,8.0,53,0.00,,,0.00,LWC V2.00 B2112,2013-05-28 21:21:00,
2013-05-28 17:26:00,82.4,63.5,30.09,WSW,241,0.0,1.0,53,0.00,,,0.00,LWC V2.00 B2112,2013-05-28 21:26:00,
2013-05-28 17:31:00,82.6,63.7,30.09,SW,233,0.0,2.0,53,0.00,,,0.00,LWC V2.00 B2112,2013-05-28 21:31:00,
2013-05-28 17:36:00,82.8,63.9,30.09,South,185,0.0,0.0,53,0.00,,,0.00,LWC V2.00 B2112,2013-05-28 21:36:00,
2013-05-28 17:41:00,82.8,64.4,30.09,SSW,207,0.0,0.0,54,0.00,,,0.00,LWC V2.00 B2112,2013-05-28 21:41:00,
2013-05-28 17:46:00,82.8,65.0,30.09,SW,228,0.0,0.0,55,0.00,,,0.00,LWC V2.00 B2112,2013-05-28 21:46:00,
2013-05-28 17:51:00,83.0,64.1,30.09,SSE,165,0.0,0.0,53,0.00,,,0.00,LWC V2.00 B2112,2013-05-28 21:51:00,
2013-05-28 17:56:00,83.0,64.1,30.08,South,184,0.0,0.0,53,0.00,,,0.00,LWC V2.00 B2112,2013-05-28 21:56:00,
2013-05-28 18:01:00,82.8,63.3,30.08,SW,224,0.0,1.0,52,0.00,,,0.00,LWC V2.00 B2112,2013-05-28 22:01:00,
2013-05-28 18:06:00,82.6,64.2,30.08,SW,217,0.0,0.0,54,0.00,,,0.00,LWC V2.00 B2112,2013-05-28 22:06:00,
2013-05-28 18:11:00,82.6,64.2,30.08,SSE,163,0.0,0.0,54,0.00,,,0.00,LWC V2.00 B2112,2013-05-28 22:11:00,
2013-05-28 18:16:00,82.4,63.5,30.08,SSW,211,0.0,0.0,53,0.00,,,0.00,LWC V2.00 B2112,2013-05-28 22:16:00,
2013-05-28 18:21:00,82.2,63.3,30.08,WSW,242,0.0,0.0,53,0.00,,,0.00,LWC V2.00 B2112,2013-05-28 22:21:00,
2013-05-28 18:26:00,82.0,63.2,30.08,SSW,193,0.0,0.0,53,0.00,,,0.00,LWC V2.00 B2112,2013-05-28 22:26:00,
2013-05-28 18:31:00,81.8,63.5,30.08,SSW,193,0.0,0.0,54,0.00,,,0.00,LWC V2.00 B2112,2013-05-28 22:31:00,
2013-05-28 18:36:00,81.6,63.3,30.08,South,189,0.0,0.0,54,0.00,,,0.00,LWC V2.00 B2112,2013-05-28 22:36:00,
2013-05-28 18:41:00,81.4,63.1,30.08,SE,124,0.0,2.0,54,0.00,,,0.00,LWC V2.00 B2112,2013-05-28 22:41:00,
2013-05-28 18:46:00,81.2,62.9,30.08,SW,220,0.0,0.0,54,0.00,,,0.00,LWC V2.00 B2112,2013-05-28 22:46:00,
2013-05-28 18:51:00,81.1,63.9,30.08,South,179,0.0,0.0,56,0.00,,,0.00,LWC V2.00 B2112,2013-05-28 22:51:00,
2013-05-28 18:56:00,80.7,63.0,30.08,West,281,0.0,3.0,55,0.00,,,0.00,LWC V2.00 B2112,2013-05-28 22:56:00,
2013-05-28 19:01:00,80.5,62.8,30.08,West,280,0.0,0.0,55,0.00,,,0.00,LWC V2.00 B2112,2013-05-28 23:01:00,
2013-05-28 19:06:00,80.1,63.0,30.08,South,184,0.0,0.0,56,0.00,,,0.00,LWC V2.00 B2112,2013-05-28 23:06:00,
2013-05-28 19:11:00,79.8,63.2,30.08,South,184,0.0,0.0,57,0.00,,,0.00,LWC V2.00 B2112,2013-05-28 23:11:00,
2013-05-28 19:16:00,79.6,63.5,30.08,WSW,244,0.0,0.0,58,0.00,,,0.00,LWC V2.00 B2112,2013-05-28 23:16:00,
2013-05-28 19:21:00,79.4,62.8,30.08,SSW,198,0.0,0.0,57,0.00,,,0.00,LWC V2.00 B2112,2013-05-28 23:21:00,
2013-05-28 19:26:00,79.2,62.6,30.07,SSE,151,0.0,0.0,57,0.00,,,0.00,LWC V2.00 B2112,2013-05-28 23:26:00,
2013-05-28 19:31:00,79.0,62.4,30.07,SSW,197,0.0,0.0,57,0.00,,,0.00,LWC V2.00 B2112,2013-05-28 23:31:00,
2013-05-28 19:36:00,78.8,62.3,30.07,South,185,0.0,0.0,57,0.00,,,0.00,LWC V2.00 B2112,2013-05-28 23:36:00,
2013-05-28 19:41:00,78.8,62.3,30.07,South,179,0.0,0.0,57,0.00,,,0.00,LWC V2.00 B2112,2013-05-28 23:41:00,
2013-05-28 19:46:00,78.6,62.1,30.07,SSW,199,0.0,0.0,57,0.00,,,0.00,LWC V2.00 B2112,2013-05-28 23:46:00,
2013-05-28 19:51:00,78.5,62.0,30.07,SSE,155,0.0,0.0,57,0.00,,,0.00,LWC V2.00 B2112,2013-05-28 23:51:00,
2013-05-28 19:56:00,78.1,62.1,30.07,SSE,155,0.0,0.0,58,0.00,,,0.00,LWC V2.00 B2112,2013-05-28 23:56:00,
2013-05-28 20:01:00,77.7,62.2,30.07,SSE,155,0.0,0.0,59,0.00,,,0.00,LWC V2.00 B2112,2013-05-29 00:01:00,
2013-05-28 20:06:00,77.4,61.9,30.07,SSE,155,0.0,0.0,59,0.00,,,0.00,LWC V2.00 B2112,2013-05-29 00:06:00,
2013-05-28 20:11:00,77.2,62.2,30.07,SSE,155,0.0,0.0,60,0.00,,,0.00,LWC V2.00 B2112,2013-05-29 00:11:00,
2013-05-28 20:16:00,77.0,62.5,30.07,SW,217,0.0,0.0,61,0.00,,,0.00,LWC V2.00 B2112,2013-05-29 00:16:00,
2013-05-28 20:21:00,76.8,62.3,30.07,SSW,212,0.0,0.0,61,0.00,,,0.00,LWC V2.00 B2112,2013-05-29 00:21:00,
2013-05-28 20:26:00,76.5,62.0,30.08,SW,221,0.0,0.0,61,0.00,,,0.00,LWC V2.00 B2112,2013-05-29 00:26:00,
2013-05-28 20:31:00,76.1,62.1,30.08,SW,227,0.0,0.0,62,0.00,,,0.00,LWC V2.00 B2112,2013-05-29 00:31:00,
2013-05-28 20:36:00,76.0,62.0,30.08,SW,226,0.0,0.0,62,0.00,,,0.00,LWC V2.00 B2112,2013-05-29 00:36:00,
2013-05-28 20:41:00,75.8,62.3,30.08,SSW,212,0.0,0.0,63,0.00,,,0.00,LWC V2.00 B2112,2013-05-29 00:41:00,
2013-05-28 20:46:00,75.6,62.1,30.08,SW,236,0.0,0.0,63,0.00,,,0.00,LWC V2.00 B2112,2013-05-29 00:46:00,
2013-05-28 20:51:00,75.3,62.3,30.08,SSE,162,0.0,0.0,64,0.00,,,0.00,LWC V2.00 B2112,2013-05-29 00:51:00,
2013-05-28 20:56:00,74.9,62.3,30.08,SSE,162,0.0,0.0,65,0.00,,,0.00,LWC V2.00 B2112,2013-05-29 00:56:00,
2013-05-28 21:01:00,74.7,62.1,30.08,SSE,153,0.0,0.0,65,0.00,,,0.00,LWC V2.00 B2112,2013-05-29 01:01:00,
2013-05-28 21:06:00,74.7,62.1,30.08,SSE,153,0.0,0.0,65,0.00,,,0.00,LWC V2.00 B2112,2013-05-29 01:06:00,
2013-05-28 21:11:00,74.6,62.0,30.08,SW,214,0.0,0.0,65,0.00,,,0.00,LWC V2.00 B2112,2013-05-29 01:11:00,
2013-05-28 21:16:00,74.2,61.7,30.08,SSW,203,0.0,0.0,65,0.00,,,0.00,LWC V2.00 B2112,2013-05-29 01:16:00,
2013-05-28 21:21:00,74.2,62.1,30.08,SSW,203,0.0,0.0,66,0.00,,,0.00,LWC V2.00 B2112,2013-05-29 01:21:00,
2013-05-28 21:26:00,73.9,61.8,30.08,SSW,203,0.0,0.0,66,0.00,,,0.00,LWC V2.00 B2112,2013-05-29 01:26:00,
2013-05-28 21:31:00,73.9,61.8,30.08,SSW,203,0.0,0.0,66,0.00,,,0.00,LWC V2.00 B2112,2013-05-29 01:31:00,
2013-05-28 21:36:00,73.9,61.8,30.08,SW,233,0.0,0.0,66,0.00,,,0.00,LWC V2.00 B2112,2013-05-29 01:36:00,
2013-05-28 21:41:00,73.9,61.8,30.08,SSW,196,0.0,0.0,66,0.00,,,0.00,LWC V2.00 B2112,2013-05-29 01:41:00,
2013-05-28 21:46:00,73.9,61.8,30.08,SE,134,0.0,0.0,66,0.00,,,0.00,LWC V2.00 B2112,2013-05-29 01:46:00,
2013-05-28 21:51:00,73.9,61.8,30.08,SE,134,0.0,0.0,66,0.00,,,0.00,LWC V2.00 B2112,2013-05-29 01:51:00,
2013-05-28 21:56:00,73.7,62.0,30.08,SE,134,0.0,0.0,67,0.00,,,0.00,LWC V2.00 B2112,2013-05-29 01:56:00,
2013-05-28 22:01:00,73.3,61.7,30.08,SE,134,0.0,0.0,67,0.00,,,0.00,LWC V2.00 B2112,2013-05-29 02:01:00,
2013-05-28 22:06:00,73.2,62.0,30.08,SE,134,0.0,0.0,68,0.00,,,0.00,LWC V2.00 B2112,2013-05-29 02:06:00,
2013-05-28 22:11:00,73.0,62.2,30.08,West,261,0.0,0.0,69,0.00,,,0.00,LWC V2.00 B2112,2013-05-29 02:11:00,
2013-05-28 22:16:00,73.0,62.2,30.08,South,171,0.0,0.0,69,0.00,,,0.00,LWC V2.00 B2112,2013-05-29 02:16:00,
2013-05-28 22:21:00,72.8,62.0,30.08,South,171,0.0,0.0,69,0.00,,,0.00,LWC V2.00 B2112,2013-05-29 02:21:00,
2013-05-28 22:26:00,72.7,62.3,30.08,SSE,148,0.0,0.0,70,0.00,,,0.00,LWC V2.00 B2112,2013-05-29 02:26:00,
2013-05-28 22:31:00,72.5,62.1,30.08,SSE,148,0.0,0.0,70,0.00,,,0.00,LWC V2.00 B2112,2013-05-29 02:31:00,
2013-05-28 22:36:00,72.3,62.0,30.08,WSW,241,0.0,0.0,70,0.00,,,0.00,LWC V2.00 B2112,2013-05-29 02:36:00,
2013-05-28 22:41:00,72.1,62.2,30.09,WSW,237,0.0,0.0,71,0.00,,,0.00,LWC V2.00 B2112,2013-05-29 02:41:00,
2013-05-28 22:46:00,72.0,62.5,30.09,SW,236,0.0,0.0,72,0.00,,,0.00,LWC V2.00 B2112,2013-05-29 02:46:00,
2013-05-28 22:51:00,71.6,62.1,30.09,South,190,0.0,0.0,72,0.00,,,0.00,LWC V2.00 B2112,2013-05-29 02:51:00,
2013-05-28 22:56:00,71.5,62.4,30.09,South,191,0.0,0.0,73,0.00,,,0.00,LWC V2.00 B2112,2013-05-29 02:56:00,
2013-05-28 23:01:00,71.6,62.1,30.09,SE,132,0.0,0.0,72,0.00,,,0.00,LWC V2.00 B2112,2013-05-29 03:01:00,
2013-05-28 23:06:00,71.6,62.5,30.09,SSE,155,0.0,0.0,73,0.00,,,0.00,LWC V2.00 B2112,2013-05-29 03:06:00,
2013-05-28 23:11:00,71.5,62.0,30.09,South,181,0.0,0.0,72,0.00,,,0.00,LWC V2.00 B2112,2013-05-29 03:11:00,
2013-05-28 23:16:00,71.5,62.0,30.09,WSW,240,0.0,0.0,72,0.00,,,0.00,LWC V2.00 B2112,2013-05-29 03:16:00,
2013-05-28 23:21:00,71.5,62.0,30.09,SSW,203,0.0,0.0,72,0.00,,,0.00,LWC V2.00 B2112,2013-05-29 03:21:00,
2013-05-28 23:26:00,71.6,61.7,30.09,SSW,203,0.0,0.0,71,0.00,,,0.00,LWC V2.00 B2112,2013-05-29 03:26:00,
2013-05-28 23:31:00,71.6,61.7,30.09,SSW,203,0.0,0.0,71,0.00,,,0.00,LWC V2.00 B2112,2013-05-29 03:31:00,
2013-05-28 23:36:00,71.6,61.7,30.09,SSW,203,0.0,0.0,71,0.00,,,0.00,LWC V2.00 B2112,2013-05-29 03:36:00,
2013-05-28 23:41:00,71.6,61.7,30.09,SW,219,0.0,0.0,71,0.00,,,0.00,LWC V2.00 B2112,2013-05-29 03:41:00,
2013-05-28 23:46:00,71.5,61.6,30.09,South,174,0.0,0.0,71,0.00,,,0.00,LWC V2.00 B2112,2013-05-29 03:46:00,
2013-05-28 23:51:00,71.3,61.4,30.09,South,171,0.0,0.0,71,0.00,,,0.00,LWC V2.00 B2112,2013-05-29 03:51:00,
2013-05-28 23:56:00,71.1,61.6,30.09,WSW,255,0.0,0.0,72,0.00,,,0.00,LWC V2.00 B2112,2013-05-29 03:56:00,